TimeGMT,TemperatureF,Dew PointF,Humidity,Sea Level PressureIn,VisibilityMPH,Wind Direction,Wind SpeedMPH,Gust SpeedMPH,PrecipitationIn,Events,Conditions,WindDirDegrees,DateUTC
12:00 AM,38,31,68,30.17,11,ESE,17.9,,,,Mostly Cloudy,120,2013-02-21 00:00:00
12:00 AM,39.2,32.0,75,30.15,6.2,ESE,19.6,-,N/A,,Mostly Cloudy,120,2013-02-21 00:00:00
12:30 AM,39.2,30.2,70,30.15,6.2,ESE,19.6,-,N/A,,Mostly Cloudy,120,2013-02-21 00:30:00
1:00 AM,37.4,30.2,75,30.15,6.2,SE,18.4,-,N/A,,Mostly Cloudy,130,2013-02-21 01:00:00
1:30 AM,37.4,30.2,75,30.15,6.2,SE,17.3,-,N/A,,Mostly Cloudy,130,2013-02-21 01:30:00
2:00 AM,37.4,30.2,75,30.15,6.2,SE,18.4,-,N/A,,Mostly Cloudy,130,2013-02-21 02:00:00
2:30 AM,37.4,30.2,75,30.15,6.2,SE,19.6,-,N/A,,Mostly Cloudy,130,2013-02-21 02:30:00
3:00 AM,37.4,28.4,70,30.15,6.2,ESE,18.4,-,N/A,,Mostly Cloudy,120,2013-02-21 03:00:00
3:30 AM,37.4,30.2,75,30.15,6.2,ESE,19.6,-,N/A,,Mostly Cloudy,120,2013-02-21 03:30:00
4:00 AM,37.4,30.2,75,30.15,6.2,ESE,20.7,-,N/A,,Mostly Cloudy,120,2013-02-21 04:00:00
4:30 AM,35.6,28.4,75,30.15,6.2,SE,21.9,-,N/A,,Mostly Cloudy,130,2013-02-21 04:30:00
5:00 AM,35.6,28.4,75,30.15,6.2,SE,18.4,-,N/A,,Mostly Cloudy,130,2013-02-21 05:00:00
5:30 AM,35.6,28.4,75,30.15,6.2,SE,21.9,-,N/A,,Mostly Cloudy,130,2013-02-21 05:30:00
6:00 AM,35,28,66,30.18,11,SE,20.1,,,,Mostly Cloudy,130,2013-02-21 06:00:00
6:00 AM,35.6,28.4,75,30.15,6.2,SE,20.7,-,N/A,,Mostly Cloudy,130,2013-02-21 06:00:00
6:30 AM,35.6,26.6,70,30.15,6.2,SE,19.6,-,N/A,,Mostly Cloudy,140,2013-02-21 06:30:00
7:00 AM,35.6,28.4,75,30.15,6.2,ESE,18.4,-,N/A,,Mostly Cloudy,120,2013-02-21 07:00:00
7:30 AM,35.6,28.4,75,30.15,6.2,SE,18.4,-,N/A,,Mostly Cloudy,130,2013-02-21 07:30:00
8:00 AM,35.6,26.6,70,30.15,6.2,SE,18.4,-,N/A,,Mostly Cloudy,130,2013-02-21 08:00:00
8:30 AM,35.6,28.4,75,30.18,6.2,SE,19.6,-,N/A,,Mostly Cloudy,130,2013-02-21 08:30:00
9:00 AM,35.6,28.4,75,30.18,6.2,SE,17.3,-,N/A,,Mostly Cloudy,130,2013-02-21 09:00:00
9:30 AM,35.6,28.4,75,30.18,6.2,SE,17.3,-,N/A,,Mostly Cloudy,130,2013-02-21 09:30:00
10:00 AM,35.6,28.4,75,30.18,6.2,SE,17.3,-,N/A,,Mostly Cloudy,130,2013-02-21 10:00:00
10:30 AM,35.6,28.4,75,30.18,6.2,ESE,17.3,-,N/A,,Mostly Cloudy,120,2013-02-21 10:30:00
11:00 AM,35.6,28.4,75,30.18,6.2,SE,18.4,-,N/A,,Mostly Cloudy,130,2013-02-21 11:00:00
11:30 AM,35.6,28.4,75,30.18,6.2,SE,18.4,-,N/A,,Mostly Cloudy,130,2013-02-21 11:30:00
12:00 PM,36,28,61,30.21,12,SE,17.9,,,,Mostly Cloudy,130,2013-02-21 12:00:00
12:00 PM,35.6,28.4,75,30.18,6.2,SE,17.3,-,N/A,,Mostly Cloudy,130,2013-02-21 12:00:00
12:30 PM,37.4,28.4,70,30.18,6.2,SE,20.7,-,N/A,,Mostly Cloudy,130,2013-02-21 12:30:00
1:00 PM,37.4,28.4,70,30.18,6.2,SE,19.6,-,N/A,,Mostly Cloudy,130,2013-02-21 13:00:00
1:30 PM,35.6,26.6,70,30.15,6.2,SE,20.7,-,N/A,,Mostly Cloudy,130,2013-02-21 13:30:00
2:00 PM,37.4,26.6,65,30.15,6.2,SE,19.6,-,N/A,,Mostly Cloudy,130,2013-02-21 14:00:00
2:30 PM,37.4,28.4,70,30.15,6.2,SE,19.6,-,N/A,,Mostly Cloudy,140,2013-02-21 14:30:00
3:00 PM,37.4,26.6,65,30.15,6.2,SE,19.6,-,N/A,,Mostly Cloudy,130,2013-02-21 15:00:00
3:30 PM,37.4,26.6,65,30.15,6.2,SE,16.1,-,N/A,,Mostly Cloudy,130,2013-02-21 15:30:00
4:00 PM,37.4,28.4,70,30.15,6.2,SE,18.4,-,N/A,,Mostly Cloudy,130,2013-02-21 16:00:00
4:30 PM,37.4,26.6,65,30.15,6.2,SE,17.3,-,N/A,,Mostly Cloudy,130,2013-02-21 16:30:00
5:00 PM,35.6,26.6,70,30.15,6.2,ESE,17.3,-,N/A,,Mostly Cloudy,120,2013-02-21 17:00:00
5:30 PM,35.6,26.6,70,30.15,6.2,SE,16.1,-,N/A,,Mostly Cloudy,130,2013-02-21 17:30:00
6:00 PM,36,27,58,30.18,19,ESE,13.4,,,,Mostly Cloudy,120,2013-02-21 18:00:00
6:00 PM,35.6,26.6,70,30.15,6.2,ESE,15.0,-,N/A,,Mostly Cloudy,120,2013-02-21 18:00:00
6:30 PM,35.6,26.6,70,30.15,6.2,ESE,12.7,-,N/A,,Mostly Cloudy,120,2013-02-21 18:30:00
7:00 PM,35.6,26.6,70,30.15,6.2,ESE,12.7,-,N/A,,Mostly Cloudy,110,2013-02-21 19:00:00
7:30 PM,35.6,26.6,70,30.15,6.2,ESE,12.7,-,N/A,,Mostly Cloudy,110,2013-02-21 19:30:00
8:00 PM,35.6,26.6,70,30.15,6.2,ESE,12.7,-,N/A,,Mostly Cloudy,110,2013-02-21 20:00:00
8:30 PM,35.6,26.6,70,30.15,6.2,ESE,12.7,-,N/A,,Mostly Cloudy,120,2013-02-21 20:30:00
9:00 PM,35.6,26.6,70,30.15,6.2,ESE,11.5,-,N/A,,Mostly Cloudy,110,2013-02-21 21:00:00
9:30 PM,35.6,26.6,70,30.15,6.2,ESE,12.7,-,N/A,,Mostly Cloudy,120,2013-02-21 21:30:00
10:00 PM,35.6,26.6,70,30.15,6.2,ESE,11.5,-,N/A,,Mostly Cloudy,110,2013-02-21 22:00:00
10:30 PM,35.6,26.6,70,30.15,6.2,SE,13.8,-,N/A,,Mostly Cloudy,130,2013-02-21 22:30:00
11:00 PM,35.6,24.8,65,30.15,6.2,ESE,15.0,-,N/A,,Mostly Cloudy,120,2013-02-21 23:00:00
11:30 PM,35.6,26.6,70,30.15,6.2,ESE,15.0,-,N/A,,Mostly Cloudy,120,2013-02-21 23:30:00